アラン彗星

50P/Arend (2007)

English version
Home page
Total 6,336 html files since Dec. 4, 1995
Updated on April 20, 2008

---------------------------------------------------------------------

・ プロフィール

・ 写真集

・ 軌道要素

The following orbital elements are taken from MPC 51823:

Epoch 2007 Oct. 27.0 TT = JDT 2454400.5
T 2007 Nov. 1.1826 TT                                   MPC
q   1.924355             (2000.0)            P               Q
n   0.1192532      Peri.   49.0418      +0.7113349      -0.7023468
a   4.087796       Node   355.3368      +0.5048825      +0.5370114
e   0.529244       Incl.   19.1549      +0.4889747      +0.4672555
P   8.26
From 118 observations 1951-2000, mean residual 0".8.  Nongravitational
     parameters A1 = +0.03, A2 = -0.0216.

・ 星図

・ 光度変化

        m1 = 13.8 + 5 logΔ + 5.0 log r

---------------------------------------------------------------------

軌道要素はMPCのEphemerides and Orbital Elementsに掲載されたものです。
星図は StellaNavigator Ver.2.0 for Windows (アストロアーツ 編著 / アスキー出版局刊) で作成したものです。
光度グラフはComet for Windowsで作成したものです。

---------------------------------------------------------------------

Copyright(C) 1995-2008 Seiichi Yoshida (comet@aerith.net). All rights reserved.